Probability
0 0 0 0 0 0 0 0 0 0 0 0 0 0 0 0 1 2 3 2 1 0 0 0 0 1 2 2 1 0 0 0 1 2 2 3 5 6 6 6 6 5 5
0 0 0 0 0 0 0 0 0 0 0 0 0 0 0 0 0 1 2 2 1 0 0 0 0 0 1 1 0 0 0 0 0 1 1 2 4 5 5 5 5 4 4
0 0 0 0 0 0 0 0 0 0 0 0 0 0 0 0 0 0 1 1 0 0 0 0 0 0 0 0 0 0 0 0 0 0 0 1 2 4 5 5 4 3 2
1 0 0 0 0 0 0 0 0 0 0 0 0 0 0 0 0 0 0 0 0 0 0 0 0 0 0 0 0 0 0 0 0 0 0 0 1 3 4 4 3 2 1
2 1 1 1 1 0 0 0 0 0 0 0 0 0 0 0 0 0 0 0 0 0 0 0 0 0 0 0 0 0 0 0 0 0 0 0 1 2 2 2 1 1 0
3 3 3 2 1 0 0 0 0 0 0 0 0 0 0 0 0 0 0 0 0 0 0 0 0 0 0 0 0 0 0 0 0 0 0 0 0 1 1 1 1 0 0
3 3 3 3 2 1 0 0 0 0 0 0 1 1 1 0 1 1 0 0 0 0 0 0 0 0 0 0 0 0 0 0 0 0 0 0 0 0 0 0 0 0 0
3 3 3 3 3 2 1 0 1 1 1 1 2 2 2 2 2 2 1 0 1 1 0 0 0 0 0 0 0 0 1 0 0 0 0 0 1 0 0 0 0 0 0
3 3 3 3 3 3 2 2 2 2 2 3 4 4 3 3 3 2 1 0 1 2 1 0 0 0 0 0 0 0 0 0 0 0 0 0 1 1 1 1 1 0 0
3 3 3 3 3 3 4 4 4 3 3 4 5 5 4 3 3 2 1 0 1 1 1 0 0 0 0 0 0 0 0 0 0 0 0 0 1 2 2 2 2 1 0
3 3 3 3 3 3 4 4 3 2 3 4 5 5 4 3 3 2 1 0 0 0 0 0 0 0 0 0 0 0 0 0 0 0 0 1 2 3 3 2 2 1 1
3 3 3 3 3 3 3 3 2 1 1 2 3 4 4 3 2 1 0 0 0 0 0 0 0 0 0 0 0 0 0 0 0 0 0 1 3 3 2 2 2 1 1
3 3 3 2 2 3 3 2 1 0 0 1 2 3 3 3 1 0 0 0 0 0 0 0 0 0 0 0 0 0 0 0 0 0 0 2 3 3 3 2 2 2 2
4 3 3 2 2 3 3 2 1 0 0 1 2 2 2 1 1 0 0 0 0 0 0 0 0 0 0 0 0 0 0 0 0 0 0 1 2 3 3 3 3 3 3
4 4 3 3 3 3 3 2 1 0 0 0 1 1 0 0 0 0 0 0 0 0 0 0 0 0 0 0 0 0 0 0 0 0 0 0 1 1 2 2 2 3 3
4 3 3 4 4 4 3 2 1 0 0 0 0 0 0 0 0 0 0 0 0 0 0 0 0 0 0 0 0 0 0 0 0 0 0 0 0 0 1 1 2 2 3
4 4 4 4 4 3 3 2 1 0 0 0 0 0 0 0 0 0 0 0 0 0 0 0 0 0 0 0 0 0 0 0 0 0 0 0 0 0 0 0 1 1 2
6 6 6 5 4 3 3 3 2 1 0 0 0 0 0 0 0 0 0 0 0 0 0 0 0 0 0 0 0 0 1 0 0 0 0 0 0 0 0 0 0 0 1
6 6 6 6 4 3 3 3 2 1 0 1 1 0 0 0 0 0 0 0 0 0 0 0 0 0 0 0 0 0 0 0 0 0 0 0 0 0 0 0 0 0 0
5 6 7 6 5 3 3 3 3 1 1 2 2 1 0 0 0 0 0 0 0 0 0 0 0 0 0 0 0 0 0 0 0 0 0 0 0 0 0 0 0 0 0
4 5 7 8 7 5 4 3 3 3 3 3 3 2 1 0 0 0 0 0 0 0 0 0 0 0 0 0 0 0 0 0 0 0 0 0 0 0 0 0 0 0 0
4 6 8 9 9 7 5 3 3 3 3 4 3 3 1 0 0 0 0 0 0 0 0 0 0 0 0 0 0 0 0 0 0 0 0 0 0 0 0 0 0 0 0
4 7 10 9 8 6 5 4 3 3 4 4 4 3 2 1 0 0 0 0 0 0 0 0 0 0 0 0 0 0 0 0 0 0 0 0 0 0 0 0 0 0 0
5 7 9 8 5 4 4 3 3 3 3 4 4 4 3 1 0 0 0 0 0 0 0 0 0 0 0 0 0 0 0 0 0 0 0 0 0 0 0 0 0 0 0
5 6 7 5 4 4 3 3 3 3 3 3 4 4 3 1 1 1 2 1 0 0 0 0 0 0 0 0 0 0 0 0 0 0 0 0 0 0 0 0 0 0 0
5 5 5 4 4 4 4 3 3 3 3 3 4 4 3 2 2 2 3 2 1 0 0 0 0 0 0 0 0 0 0 0 0 0 0 0 0 0 0 0 0 0 0
Wind_Speed
6 8 9 10 10 10 11 11 11 12 12 12 11 10 10 11 11 12 12 12 12 13 13 13 13 12 12 12 12 12 12 12 12 11 11 11 11 10 10 9 8 7 10
8 9 10 10 10 11 11 11 11 12 11 11 11 11 10 11 11 11 12 12 12 13 13 13 12 12 11 11 12 11 11 11 10 10 10 10 10 10 10 11 10 7 11
9 9 9 10 10 10 11 11 11 12 12 11 11 11 11 11 11 11 11 12 12 12 12 12 12 12 12 12 12 11 10 9 8 8 7 5 7 11 11 10 11 11 11
9 9 9 10 10 10 10 10 11 11 11 11 11 11 10 10 11 11 11 12 12 12 12 12 11 12 12 12 11 10 9 9 9 8 5 5 6 11 11 10 10 11 11
10 10 9 10 10 10 10 10 10 11 11 11 10 10 10 11 11 11 11 11 11 11 12 11 11 12 12 11 10 9 9 9 9 8 6 6 6 10 12 11 11 11 11
10 11 9 10 10 10 10 10 10 10 10 10 10 10 10 11 11 11 11 12 11 11 11 11 11 11 11 10 9 9 9 9 7 5 5 6 5 10 11 11 10 10 10
9 10 10 10 10 10 10 10 9 9 9 10 10 10 11 11 11 11 12 12 12 11 11 10 10 10 10 9 8 8 8 7 5 5 5 5 7 10 11 11 10 10 10
9 10 10 10 10 10 10 9 9 9 9 9 9 10 10 10 11 11 12 11 11 11 10 10 9 9 8 8 7 7 8 8 7 7 6 6 10 11 11 10 10 11 11
7 7 8 9 9 10 10 9 9 9 8 8 8 8 9 9 10 11 11 11 11 10 9 9 9 8 7 6 6 6 7 9 6 5 7 6 10 11 11 11 11 11 10
6 5 6 7 8 8 7 8 8 8 7 6 6 7 7 8 9 10 10 10 10 9 8 7 7 6 6 5 4 5 6 6 6 6 5 6 11 11 10 10 10 10 10
5 4 5 5 6 6 6 8 7 7 6 5 4 5 4 3 4 5 8 8 8 7 6 5 4 4 3 2 2 3 4 3 6 5 4 9 11 10 10 11 11 10 10
4 4 4 4 5 5 4 5 3 4 4 3 3 4 2 3 3 5 7 6 5 5 4 3 2 2 1 0 1 2 2 5 5 5 5 10 10 10 10 10 10 10 10
5 4 4 4 4 4 3 3 2 2 2 2 3 4 3 3 3 3 2 2 3 3 1 1 1 1 1 2 2 2 3 4 4 4 5 11 11 10 10 10 10 10 10
5 4 3 4 4 4 4 3 3 2 1 2 2 3 3 2 2 2 2 1 1 1 1 1 1 2 2 2 3 4 5 4 4 3 5 11 11 11 11 11 10 10 10
6 5 4 3 4 4 4 3 3 2 2 2 1 2 3 2 2 2 2 1 1 1 1 1 2 3 3 3 4 4 4 5 5 4 4 9 11 10 10 10 9 9 9
6 5 5 4 3 4 4 3 3 2 2 2 1 2 3 3 2 2 2 2 1 1 1 1 2 2 2 2 3 4 4 4 4 4 4 5 9 9 9 9 9 9 9
5 5 5 4 4 3 4 3 3 2 3 2 2 2 3 3 3 3 2 2 2 2 3 2 3 2 2 2 3 3 3 3 3 3 3 3 4 7 8 8 8 8 8
5 6 6 4 4 3 4 3 2 2 3 2 2 2 3 3 4 3 2 2 2 2 2 2 2 2 2 2 2 2 2 1 2 2 2 3 3 3 5 7 7 7 8
5 5 6 5 4 3 4 2 2 2 2 2 2 2 2 3 4 3 2 1 3 2 2 2 2 2 2 2 1 1 1 1 1 2 2 3 3 3 3 5 6 6 7
5 5 5 5 4 4 3 2 2 2 2 2 2 2 2 2 3 3 2 2 3 2 1 1 2 1 1 0 1 1 1 1 1 1 1 2 2 3 3 4 3 4 6
4 4 5 5 4 4 2 2 2 1 1 2 2 2 2 2 3 3 2 2 2 2 1 1 1 2 1 1 1 1 1 0 2 1 1 1 2 2 2 3 2 2 3
4 4 4 4 4 4 3 2 2 2 1 2 1 2 1 2 2 2 2 1 2 2 1 1 2 1 1 2 1 1 0 2 2 1 1 1 2 1 1 2 2 3 2
3 3 3 4 5 5 4 2 2 2 1 2 1 1 1 1 2 1 1 1 1 1 1 1 1 1 1 2 1 1 1 0 1 1 1 2 2 1 1 1 2 3 3
4 3 3 4 4 4 4 3 3 2 1 2 1 1 1 1 2 1 1 1 1 1 1 1 1 1 0 1 1 1 0 1 1 0 2 1 2 2 1 1 2 2 3
5 4 3 4 4 4 4 4 3 2 2 1 2 2 1 1 1 1 0 0 0 0 1 1 1 1 0 0 0 1 1 1 0 1 1 1 1 0 1 2 2 2 3
5 4 4 4 4 4 4 4 4 3 2 2 2 2 1 1 1 2 1 1 1 0 1 1 1 1 0 0 1 0 0 0 1 0 0 0 0 1 1 2 2 2 2
Wind_Direction
80 83 72 69 66 66 66 63 60 59 60 62 64 69 72 73 72 71 71 71 70 71 69 67 64 61 62 61 61 63 64 65 69 74 77 79 78 76 74 76 78 79 87
91 88 77 71 70 70 70 66 63 62 62 63 63 70 72 74 74 73 74 74 72 73 72 68 65 64 65 65 63 62 62 64 68 73 77 75 74 74 73 72 71 78 84
92 93 84 75 73 72 72 68 65 64 63 65 66 68 70 73 75 75 76 76 75 74 73 71 68 67 67 64 61 58 58 58 61 67 70 74 77 74 74 75 76 78 82
93 89 85 83 78 75 73 71 70 69 67 65 66 70 73 75 76 76 77 79 78 76 74 72 70 68 66 62 57 52 51 46 49 56 58 62 70 77 74 75 78 78 78
93 91 89 86 82 78 75 73 75 73 71 70 70 71 75 77 76 76 77 80 79 76 73 73 73 70 66 62 58 51 48 45 50 51 58 61 65 75 74 72 74 75 76
99 100 98 94 90 86 81 78 78 76 74 74 76 75 76 77 78 77 78 78 75 73 72 72 72 70 67 63 59 53 47 48 50 55 57 67 71 76 76 75 74 75 76
104 108 109 105 101 96 90 84 81 79 76 78 79 78 77 80 81 79 78 76 73 71 71 71 71 70 66 61 55 48 47 46 67 63 60 67 75 78 77 76 76 77 75
109 114 118 117 110 102 95 90 87 85 83 82 81 80 80 81 82 82 81 78 77 76 75 72 70 69 67 60 53 46 39 38 64 68 68 69 78 79 79 79 77 78 77
106 115 130 133 124 112 106 103 97 93 90 90 90 88 88 88 86 83 81 78 75 75 75 75 72 68 68 64 57 48 41 42 48 53 68 68 76 78 78 78 77 77 78
109 114 122 132 135 133 127 120 118 115 110 106 107 105 102 101 99 92 86 84 82 81 80 80 78 69 64 66 64 45 43 48 55 53 57 68 76 80 80 80 79 79 78
101 110 108 116 120 125 128 129 138 140 135 132 133 123 113 112 109 98 94 93 89 88 86 82 80 81 69 60 67 59 46 69 71 64 57 68 74 79 82 83 82 81 78
116 101 102 110 118 120 119 134 148 143 148 154 133 126 114 98 96 99 112 108 105 97 87 83 80 83 76 54 77 70 68 74 74 74 64 70 73 77 82 84 84 82 78
119 110 105 104 109 111 115 128 124 119 133 133 124 121 113 108 113 110 120 120 124 123 106 105 71 340 37 57 64 73 72 74 71 69 64 71 74 76 80 82 82 80 77
119 110 98 99 98 100 102 108 116 116 113 101 99 106 102 100 101 101 97 101 109 99 76 63 42 33 33 51 69 69 70 77 80 79 70 74 75 74 76 79 79 78 76
124 123 107 88 94 96 95 106 109 113 115 110 89 109 111 108 113 111 100 90 72 72 71 52 52 47 37 34 49 64 65 82 92 89 79 77 76 74 74 75 76 77 77
131 129 117 107 98 99 105 98 100 104 98 98 97 96 100 97 101 102 100 89 77 66 59 61 66 61 57 46 47 52 61 71 92 105 105 85 79 78 76 75 75 75 76
131 125 119 121 105 98 97 97 99 101 99 97 94 93 94 91 89 89 83 79 71 63 52 41 43 38 57 64 57 52 58 65 88 99 111 115 98 83 83 80 78 76 77
125 126 124 126 115 106 99 96 96 96 96 93 81 78 91 92 81 81 82 79 75 65 59 52 43 37 32 46 45 45 65 53 81 102 110 118 118 104 91 89 84 82 81
135 135 132 126 123 114 107 107 93 95 93 94 87 74 78 93 96 87 77 80 75 69 58 49 56 38 43 45 65 67 76 59 57 80 92 108 116 125 120 105 98 91 84
140 133 130 129 134 121 112 103 78 77 80 83 83 77 56 74 97 102 94 84 80 74 69 67 73 30 25 347 23 62 95 119 80 78 91 96 107 120 128 127 128 101 89
136 139 139 137 134 119 106 103 103 93 85 84 87 86 61 60 73 89 86 76 83 81 66 52 62 36 353 357 49 25 353 78 106 126 95 85 78 90 108 117 121 120 107
142 149 144 137 132 123 123 123 124 128 116 101 85 82 70 67 69 75 99 99 95 92 65 55 58 36 339 355 58 75 22 357 353 105 106 115 94 79 73 95 108 110 108
149 150 143 140 134 131 129 117 100 89 75 82 87 93 78 78 80 67 64 86 105 116 116 104 98 90 343 324 6 94 104 182 299 321 202 128 120 99 74 70 86 96 101
155 145 147 141 139 135 134 130 136 141 167 166 153 152 175 133 104 80 68 77 91 101 114 187 102 103 72 316 328 349 276 134 132 329 326 46 128 130 122 90 84 92 97
150 149 152 146 139 138 142 150 171 166 180 157 141 136 134 130 132 142 142 110 120 123 144 134 97 97 162 234 295 320 351 4 295 140 224 306 358 146 132 111 104 95 96
147 149 154 152 145 151 163 170 184 173 169 147 141 144 163 164 170 178 186 189 176 164 173 153 127 171 215 267 308 314 143 205 260 145 184 220 203 289 109 102 108 112 106